DW6451 Weather Reports


Display with metric or nautical units.
time (UTC)temp
F
wind
direction
speed
MPH
gust
MPH
rain 1hr
in
rain 24hr
in
rain mn
in
humidity
%
barometer
mb
20260906211514 80 107 0.0 3.0 0.00 0.01 0.00 71 1016.9
20260906210013 80 91 1.0 5.0 0.00 0.01 0.00 72 1017.0
20260906204506 80 5 0.0 5.0 0.00 0.01 0.00 72 1017.2
20260906203006 80 331 0.0 5.0 0.00 0.01 0.00 73 1017.2
20260906201515 79 360 1.0 5.0 0.00 0.01 0.00 73 1017.1
20260906200004 79 355 1.0 8.0 0.00 0.01 0.00 73 1017.0
20260906194503 79 355 1.0 7.0 0.00 0.01 0.00 75 1017.1
20260906193002 78 323 1.0 7.0 0.00 0.01 0.00 76 1017.1
20260906191608 78 55 2.0 7.0 0.00 0.01 0.00 74 1017.3
20260906190100 79 325 1.0 5.0 0.00 0.01 0.00 75 1017.4
20260906184559 79 331 2.0 6.0 0.00 0.01 0.00 74 1017.4
20260906183059 80 22 2.0 6.0 0.00 0.01 0.00 73 1017.4
20260906181558 81 338 1.0 5.0 0.00 0.01 0.00 74 1017.5
20260906180115 80 345 1.0 5.0 0.00 0.01 0.00 74 1017.8
20260906174559 79 27 1.0 5.0 0.00 0.01 0.00 75 1018.0
20260906173058 79 62 0.0 4.0 0.00 0.01 0.00 76 1018.2
20260906171547 77 46 0.0 5.0 0.00 0.01 0.00 77 1018.6
20260906170048 77 309 2.0 5.0 0.00 0.01 0.00 77 1018.7
20260906164546 77 32 1.0 5.0 0.00 0.01 0.00 77 1018.6
20260906163046 77 346 0.0 4.0 0.00 0.01 0.00 78 1018.5
20260906161544 77 345 1.0 4.0 0.00 0.01 0.00 78 1018.6
20260906160045 77 347 0.0 4.0 0.00 0.01 0.00 79 1018.6
20260906154545 77 94 0.0 3.0 0.00 0.01 0.00 79 1018.7
20260906153053 75 94 0.0 2.0 0.00 0.01 0.00 82 1018.6
20260906151548 73 94 0.0 3.0 0.00 0.01 0.00 84 1018.9
20260906150033 71 94 0.0 2.0 0.00 0.01 0.00 86 1019.0
20260906144524 70 94 0.0 3.0 0.00 0.01 0.00 90 1019.1
20260906143033 68 94 0.0 3.0 0.00 0.01 0.00 94 1019.2
20260906141518 67 94 0.0 2.0 0.00 0.01 0.00 98 1019.0
20260906140019 65 94 0.0 2.0 0.00 0.01 0.00 100 1019.2
20260906134511 64 94 0.0 3.0 0.00 0.01 0.00 100 1019.2
20260906133022 62 94 0.0 1.0 0.00 0.01 0.00 100 1019.3
20260906131517 61 94 0.0 0.0 0.00 0.01 0.00 100 1019.3
20260906130009 61 94 0.0 0.0 0.00 0.01 0.00 100 1019.2
20260906124508 60 94 0.0 0.0 0.00 0.01 0.00 100 1019.1
20260906123016 59 94 0.0 0.0 0.00 0.01 0.00 99 1019.2
20260906121505 58 94 0.0 0.0 0.00 0.01 0.00 99 1019.0
20260906120003 58 94 0.0 0.0 0.00 0.01 0.00 99 1018.7
20260906114502 58 94 0.0 0.0 0.00 0.01 0.00 98 1018.5
20260906113102 58 94 0.0 0.0 0.00 0.01 0.00 98 1018.4
20260906111604 58 94 0.0 0.0 0.00 0.01 0.00 98 1018.3
20260906104557 58 94 0.0 0.0 0.00 0.02 0.00 98 1017.8
20260906103108 58 94 0.0 0.0 0.00 0.02 0.00 97 1017.8
20260906101556 58 94 0.0 0.0 0.00 0.02 0.00 97 1017.8
20260906100059 58 94 0.0 0.0 0.00 0.02 0.00 97 1017.8
20260906094553 59 94 0.0 0.0 0.00 0.02 0.00 97 1017.8
20260906093058 59 94 0.0 0.0 0.00 0.02 0.00 97 1017.9
20260906091550 59 94 0.0 0.0 0.00 0.02 0.00 97 1017.9
20260906090101 59 94 0.0 0.0 0.00 0.02 0.00 97 1018.1
20260906084549 60 94 0.0 0.0 0.00 0.04 0.00 97 1018.0
20260906083047 60 94 0.0 0.0 0.00 0.04 0.00 97 1018.0
20260906081547 60 94 0.0 0.0 0.00 0.04 0.00 96 1017.9
20260906080044 60 94 0.0 0.0 0.00 0.04 0.00 96 1017.8
20260906074543 61 94 0.0 0.0 0.00 0.04 0.00 96 1017.7
20260906073056 61 94 0.0 0.0 0.00 0.04 0.00 96 1017.9
20260906071540 61 94 0.0 0.0 0.00 0.04 0.00 96 1018.0
20260906070041 62 94 0.0 0.0 0.00 0.04 0.00 95 1018.0
20260906064538 62 94 0.0 0.0 0.00 0.05 0.00 95 1018.1
20260906063046 62 94 0.0 0.0 0.00 0.05 0.00 95 1017.9
20260906061535 62 94 0.0 0.0 0.00 0.05 0.00 95 1018.0
20260906060032 63 94 0.0 0.0 0.00 0.05 0.00 95 1017.9
20260906054529 63 94 0.0 0.0 0.00 0.05 0.00 94 1017.7
20260906053028 64 94 0.0 0.0 0.00 0.05 0.00 94 1017.6
20260906051545 65 94 0.0 0.0 0.00 0.05 0.00 94 1017.5
20260906050024 65 94 0.0 0.0 0.00 0.05 0.00 94 1017.5
20260906044523 65 94 0.0 1.0 0.00 0.05 0.05 94 1017.5
20260906043023 65 94 0.0 0.0 0.00 0.05 0.05 94 1017.6
20260906041522 65 94 0.0 0.0 0.01 0.05 0.05 95 1017.5
20260906040032 65 94 0.0 1.0 0.01 0.05 0.05 95 1017.2
20260906034526 65 94 0.0 1.0 0.01 0.05 0.05 95 1017.2
20260906033021 65 94 0.0 1.0 0.01 0.05 0.05 95 1017.2
20260906031520 65 94 0.0 1.0 0.00 0.04 0.04 95 1017.1
20260906030019 65 94 0.0 1.0 0.00 0.04 0.04 95 1017.1
20260906024520 65 94 0.0 1.0 0.00 0.04 0.04 95 1016.8
20260906023018 65 94 0.0 2.0 0.00 0.04 0.04 95 1017.0
20260906021518 65 94 0.0 0.0 0.00 0.04 0.04 94 1016.8
20260906020020 65 94 0.0 0.0 0.00 0.04 0.04 94 1016.9
20260906014526 65 94 0.0 0.0 0.00 0.04 0.04 92 1016.7
20260906013017 65 94 0.0 0.0 0.00 0.04 0.04 91 1016.8
20260906011516 66 94 0.0 0.0 0.00 0.04 0.04 90 1016.5
20260906010015 66 94 0.0 0.0 0.00 0.04 0.04 89 1016.6
20260906004515 67 94 0.0 1.0 0.00 0.04 0.04 88 1016.5
20260906003015 67 94 0.0 0.0 0.00 0.04 0.04 87 1016.6
20260906001514 68 94 0.0 1.0 0.00 0.04 0.04 86 1016.9
20260906000013 69 94 0.0 1.0 0.00 0.04 0.04 84 1016.9
20260905234513 69 94 0.0 2.0 0.00 0.04 0.04 82 1016.8
20260905233012 70 96 0.0 2.0 0.00 0.04 0.04 80 1016.8
20260905231521 71 99 0.0 5.0 0.00 0.04 0.04 79 1016.5
20260905230019 72 61 1.0 5.0 0.00 0.04 0.04 78 1016.7
20260905224511 72 144 0.0 4.0 0.00 0.04 0.04 76 1016.8
20260905223011 73 82 1.0 5.0 0.00 0.04 0.04 73 1016.7
20260905221510 74 93 0.0 7.0 0.00 0.04 0.04 72 1016.6
20260905220009 74 65 1.0 6.0 0.00 0.04 0.04 73 1016.8
20260905214509 74 84 1.0 5.0 0.00 0.04 0.04 72 1016.8
20260905213008 75 23 0.0 8.0 0.00 0.04 0.04 74 1016.7